| time (UTC) | temp C | wind direction | speed KPH | gust KPH | rain 1hr cm | rain 24hr cm | rain mn cm | humidity % | barometer mb |
| 20260508135642 | 8 | 144 | 0.0 | 0.0 | 0.00 | 0.00 | 0.00 | 45 | 1021.3 |
| 20260508135155 | 7 | 144 | 0.0 | 0.0 | 0.00 | 0.00 | 0.00 | 45 | 1021.3 |
| 20260508134626 | 7 | 144 | 0.0 | 0.0 | 0.00 | 0.00 | 0.00 | 43 | 1021.3 |
| 20260508134141 | 7 | 144 | 0.0 | 0.0 | 0.00 | 0.00 | 0.00 | 45 | 1021.3 |
| 20260508133634 | 7 | 144 | 0.0 | 0.0 | 0.00 | 0.00 | 0.00 | 41 | 1021.2 |
| 20260508133132 | 6 | 144 | 0.0 | 0.0 | 0.00 | 0.00 | 0.00 | 43 | 1021.2 |
| 20260508132625 | 6 | 144 | 0.0 | 0.0 | 0.00 | 0.00 | 0.00 | 43 | 1021.1 |
| 20260508132138 | 5 | 144 | 0.0 | 0.0 | 0.00 | 0.00 | 0.00 | 42 | 1021.1 |
| 20260508131632 | 5 | 144 | 0.0 | 0.0 | 0.00 | 0.00 | 0.00 | 46 | 1020.9 |
| 20260508131125 | 5 | 144 | 0.0 | 0.0 | 0.00 | 0.00 | 0.00 | 45 | 1020.8 |
| 20260508130640 | 4 | 144 | 0.0 | 0.0 | 0.00 | 0.00 | 0.00 | 47 | 1020.8 |
| 20260508130133 | 4 | 144 | 0.0 | 0.0 | 0.00 | 0.00 | 0.00 | 46 | 1020.7 |
| 20260508125647 | 4 | 144 | 0.0 | 0.0 | 0.00 | 0.00 | 0.00 | 46 | 1020.6 |
| 20260508125124 | 4 | 144 | 0.0 | 0.0 | 0.00 | 0.00 | 0.00 | 46 | 1020.6 |
| 20260508124637 | 4 | 126 | 0.0 | 0.0 | 0.00 | 0.00 | 0.00 | 45 | 1020.5 |
| 20260508124129 | 4 | 218 | 0.0 | 0.0 | 0.00 | 0.00 | 0.00 | 44 | 1020.4 |
| 20260508123623 | 4 | 218 | 0.0 | 0.0 | 0.00 | 0.00 | 0.00 | 44 | 1020.3 |
| 20260508123137 | 4 | 218 | 0.0 | 4.8 | 0.00 | 0.00 | 0.00 | 44 | 1020.3 |
| 20260508122630 | 4 | 218 | 0.0 | 4.8 | 0.00 | 0.00 | 0.00 | 44 | 1020.2 |
| 20260508122123 | 4 | 218 | 1.6 | 4.8 | 0.00 | 0.00 | 0.00 | 42 | 1020.1 |
| 20260508121638 | 4 | 91 | 0.0 | 3.2 | 0.00 | 0.00 | 0.00 | 43 | 1020.1 |
| 20260508121150 | 4 | 91 | 0.0 | 3.2 | 0.00 | 0.00 | 0.00 | 41 | 1020.1 |
| 20260508120627 | 5 | 91 | 0.0 | 0.0 | 0.00 | 0.00 | 0.00 | 40 | 1020.0 |
| 20260508120141 | 5 | 91 | 0.0 | 0.0 | 0.00 | 0.00 | 0.00 | 40 | 1020.1 |
| 20260508115654 | 5 | 91 | 0.0 | 0.0 | 0.00 | 0.00 | 0.00 | 39 | 1020.0 |
| 20260508115147 | 5 | 91 | 0.0 | 0.0 | 0.00 | 0.00 | 0.00 | 39 | 1020.1 |
| 20260508114639 | 5 | 91 | 0.0 | 0.0 | 0.00 | 0.00 | 0.00 | 40 | 1020.1 |
| 20260508114132 | 5 | 91 | 0.0 | 0.0 | 0.00 | 0.00 | 0.00 | 40 | 1020.1 |
| 20260508113626 | 6 | 91 | 0.0 | 0.0 | 0.00 | 0.00 | 0.00 | 40 | 1020.1 |
| 20260508113140 | 6 | 91 | 0.0 | 3.2 | 0.00 | 0.00 | 0.00 | 37 | 1019.9 |
| 20260508112633 | 6 | 91 | 1.6 | 3.2 | 0.00 | 0.00 | 0.00 | 38 | 1020.0 |
| 20260508112130 | 6 | 91 | 0.0 | 4.8 | 0.00 | 0.00 | 0.00 | 39 | 1019.9 |
| 20260508111624 | 6 | 91 | 1.6 | 4.8 | 0.00 | 0.00 | 0.00 | 35 | 1019.9 |
| 20260508111137 | 6 | 223 | 3.2 | 4.8 | 0.00 | 0.00 | 0.00 | 38 | 1019.9 |
| 20260508110631 | 6 | 223 | 1.6 | 4.8 | 0.00 | 0.00 | 0.00 | 37 | 1019.7 |
| 20260508110204 | 6 | 201 | 0.0 | 0.0 | 0.00 | 0.00 | 0.00 | 40 | 1019.8 |
| 20260508105636 | 6 | 87 | 0.0 | 0.0 | 0.00 | 0.00 | 0.00 | 40 | 1019.9 |
| 20260508105128 | 6 | 87 | 0.0 | 0.0 | 0.00 | 0.00 | 0.00 | 36 | 1019.8 |
| 20260508104643 | 6 | 32 | 0.0 | 0.0 | 0.00 | 0.00 | 0.00 | 38 | 1019.8 |
| 20260508104136 | 6 | 286 | 0.0 | 0.0 | 0.00 | 0.00 | 0.00 | 38 | 1019.6 |
| 20260508103654 | 6 | 194 | 0.0 | 0.0 | 0.00 | 0.00 | 0.00 | 39 | 1019.5 |
| 20260508103126 | 6 | 194 | 0.0 | 4.8 | 0.00 | 0.00 | 0.00 | 38 | 1019.4 |
| 20260508102639 | 6 | 194 | 1.6 | 4.8 | 0.00 | 0.00 | 0.00 | 36 | 1019.3 |
| 20260508102133 | 6 | 272 | 0.0 | 4.8 | 0.00 | 0.00 | 0.00 | 38 | 1019.3 |
| 20260508101626 | 6 | 294 | 1.6 | 4.8 | 0.00 | 0.00 | 0.00 | 35 | 1019.3 |
| 20260508101140 | 6 | 360 | 1.6 | 6.4 | 0.00 | 0.00 | 0.00 | 35 | 1019.2 |
| 20260508100633 | 5 | 232 | 3.2 | 6.4 | 0.00 | 0.00 | 0.00 | 34 | 1019.2 |
| 20260508100127 | 5 | 77 | 0.0 | 0.0 | 0.00 | 0.00 | 0.00 | 35 | 1019.3 |
| 20260508095645 | 5 | 23 | 0.0 | 0.0 | 0.00 | 0.00 | 0.00 | 34 | 1019.4 |
| 20260508095138 | 5 | 23 | 0.0 | 4.8 | 0.00 | 0.00 | 0.00 | 34 | 1019.4 |
| 20260508094631 | 6 | 23 | 0.0 | 4.8 | 0.00 | 0.00 | 0.00 | 35 | 1019.3 |
| 20260508094124 | 6 | 288 | 1.6 | 4.8 | 0.00 | 0.00 | 0.00 | 34 | 1019.3 |
| 20260508093638 | 6 | 296 | 1.6 | 4.8 | 0.00 | 0.00 | 0.00 | 33 | 1019.3 |
| 20260508093132 | 6 | 201 | 0.0 | 0.0 | 0.00 | 0.00 | 0.00 | 34 | 1019.4 |
| 20260508092645 | 6 | 196 | 0.0 | 0.0 | 0.00 | 0.00 | 0.00 | 32 | 1019.5 |
| 20260508092138 | 6 | 196 | 0.0 | 0.0 | 0.00 | 0.00 | 0.00 | 33 | 1019.5 |
| 20260508091632 | 6 | 196 | 0.0 | 0.0 | 0.00 | 0.00 | 0.00 | 33 | 1019.6 |
| 20260508091149 | 7 | 196 | 0.0 | 0.0 | 0.00 | 0.00 | 0.00 | 33 | 1019.6 |
| 20260508090643 | 7 | 196 | 0.0 | 0.0 | 0.00 | 0.00 | 0.00 | 31 | 1019.6 |
| 20260508090135 | 7 | 196 | 0.0 | 0.0 | 0.00 | 0.00 | 0.00 | 30 | 1019.7 |
| 20260508085648 | 7 | 196 | 0.0 | 0.0 | 0.00 | 0.00 | 0.00 | 29 | 1019.7 |
| 20260508085141 | 8 | 196 | 0.0 | 0.0 | 0.00 | 0.00 | 0.00 | 30 | 1019.7 |
| 20260508084656 | 8 | 196 | 0.0 | 0.0 | 0.00 | 0.00 | 0.00 | 30 | 1019.7 |
| 20260508084128 | 8 | 196 | 0.0 | 0.0 | 0.00 | 0.00 | 0.00 | 28 | 1019.7 |
| 20260508083642 | 8 | 196 | 0.0 | 0.0 | 0.00 | 0.00 | 0.00 | 30 | 1019.7 |
| 20260508083136 | 9 | 196 | 0.0 | 1.6 | 0.00 | 0.00 | 0.00 | 27 | 1019.7 |
| 20260508082649 | 10 | 196 | 0.0 | 1.6 | 0.00 | 0.00 | 0.00 | 26 | 1019.7 |
| 20260508082126 | 10 | 196 | 0.0 | 0.0 | 0.00 | 0.00 | 0.00 | 26 | 1019.6 |
| 20260508081640 | 10 | 196 | 0.0 | 1.6 | 0.00 | 0.00 | 0.00 | 25 | 1019.6 |
| 20260508081134 | 11 | 196 | 1.6 | 3.2 | 0.00 | 0.00 | 0.00 | 26 | 1019.7 |
| 20260508080627 | 11 | 196 | 0.0 | 3.2 | 0.00 | 0.00 | 0.00 | 23 | 1019.7 |
| 20260508080202 | 11 | 196 | 0.0 | 3.2 | 0.00 | 0.00 | 0.00 | 21 | 1019.7 |
| 20260508075630 | 12 | 196 | 0.0 | 1.6 | 0.00 | 0.00 | 0.00 | 21 | 1019.7 |
| 20260508075123 | 12 | 196 | 0.0 | 4.8 | 0.00 | 0.00 | 0.00 | 20 | 1019.7 |
| 20260508074637 | 12 | 196 | 1.6 | 4.8 | 0.00 | 0.00 | 0.00 | 19 | 1019.7 |
| 20260508074135 | 12 | 250 | 3.2 | 8.0 | 0.00 | 0.00 | 0.00 | 19 | 1019.7 |
| 20260508073628 | 13 | 284 | 4.8 | 11.3 | 0.00 | 0.00 | 0.00 | 19 | 1019.7 |
| 20260508073141 | 13 | 238 | 4.8 | 11.3 | 0.00 | 0.00 | 0.00 | 21 | 1019.8 |
| 20260508072635 | 13 | 161 | 4.8 | 8.0 | 0.00 | 0.00 | 0.00 | 23 | 1019.7 |
| 20260508072128 | 14 | 98 | 1.6 | 9.7 | 0.00 | 0.00 | 0.00 | 24 | 1019.7 |
| 20260508071640 | 14 | 55 | 4.8 | 9.7 | 0.00 | 0.00 | 0.00 | 23 | 1019.7 |
| 20260508071134 | 14 | 40 | 1.6 | 14.5 | 0.00 | 0.00 | 0.00 | 23 | 1019.6 |
| 20260508070628 | 14 | 27 | 4.8 | 14.5 | 0.00 | 0.00 | 0.00 | 23 | 1019.7 |
| 20260508070124 | 13 | 33 | 6.4 | 14.5 | 0.00 | 0.00 | 0.00 | 23 | 1019.7 |
| 20260508065638 | 13 | 36 | 4.8 | 12.9 | 0.00 | 0.00 | 0.00 | 23 | 1019.6 |
| 20260508065133 | 13 | 5 | 4.8 | 6.4 | 0.00 | 0.00 | 0.00 | 22 | 1019.6 |
| 20260508064625 | 13 | 34 | 1.6 | 6.4 | 0.00 | 0.00 | 0.00 | 21 | 1019.6 |
| 20260508064139 | 13 | 37 | 3.2 | 6.4 | 0.00 | 0.00 | 0.00 | 21 | 1019.5 |
| 20260508063632 | 13 | 304 | 1.6 | 6.4 | 0.00 | 0.00 | 0.00 | 20 | 1019.5 |
| 20260508063125 | 13 | 11 | 3.2 | 8.0 | 0.00 | 0.00 | 0.00 | 19 | 1019.6 |
| 20260508062638 | 13 | 355 | 4.8 | 8.0 | 0.00 | 0.00 | 0.00 | 19 | 1019.5 |
| 20260508062151 | 13 | 42 | 3.2 | 8.0 | 0.00 | 0.00 | 0.00 | 19 | 1019.5 |
| 20260508061627 | 13 | 13 | 3.2 | 6.4 | 0.00 | 0.00 | 0.00 | 19 | 1019.5 |
| 20260508061141 | 13 | 5 | 3.2 | 9.7 | 0.00 | 0.00 | 0.00 | 18 | 1019.5 |
| 20260508060634 | 14 | 28 | 6.4 | 9.7 | 0.00 | 0.00 | 0.00 | 17 | 1019.5 |
| 20260508060128 | 13 | 326 | 4.8 | 19.3 | 0.00 | 0.00 | 0.00 | 18 | 1019.5 |
| 20260508055640 | 13 | 17 | 3.2 | 19.3 | 0.00 | 0.00 | 0.00 | 17 | 1019.5 |
| 20260508055132 | 13 | 103 | 3.2 | 14.5 | 0.00 | 0.00 | 0.00 | 18 | 1019.5 |
| 20260508054625 | 13 | 323 | 3.2 | 14.5 | 0.00 | 0.00 | 0.00 | 18 | 1019.5 |
| 20260508054123 | 13 | 13 | 1.6 | 8.0 | 0.00 | 0.00 | 0.00 | 17 | 1019.6 |
| 20260508053636 | 13 | 14 | 1.6 | 9.7 | 0.00 | 0.00 | 0.00 | 17 | 1019.7 |
| 20260508053129 | 13 | 323 | 4.8 | 14.5 | 0.00 | 0.00 | 0.00 | 16 | 1019.6 |
| 20260508052643 | 13 | 41 | 3.2 | 14.5 | 0.00 | 0.00 | 0.00 | 16 | 1019.6 |
| 20260508052135 | 13 | 31 | 4.8 | 9.7 | 0.00 | 0.00 | 0.00 | 16 | 1019.7 |
| 20260508051628 | 13 | 313 | 4.8 | 9.7 | 0.00 | 0.00 | 0.00 | 17 | 1019.7 |
| 20260508051202 | 13 | 38 | 3.2 | 14.5 | 0.00 | 0.00 | 0.00 | 17 | 1019.6 |
| 20260508050635 | 13 | 346 | 4.8 | 14.5 | 0.00 | 0.00 | 0.00 | 16 | 1019.7 |
| 20260508050148 | 13 | 5 | 6.4 | 16.1 | 0.00 | 0.00 | 0.00 | 16 | 1019.7 |
| 20260508045624 | 13 | 35 | 4.8 | 16.1 | 0.00 | 0.00 | 0.00 | 16 | 1019.6 |
| 20260508045158 | 14 | 32 | 4.8 | 16.1 | 0.00 | 0.00 | 0.00 | 16 | 1019.6 |
| 20260508044630 | 14 | 355 | 6.4 | 16.1 | 0.00 | 0.00 | 0.00 | 16 | 1019.7 |
| 20260508044140 | 14 | 19 | 4.8 | 11.3 | 0.00 | 0.00 | 0.00 | 16 | 1019.7 |
| 20260508043629 | 14 | 342 | 4.8 | 11.3 | 0.00 | 0.00 | 0.00 | 16 | 1019.7 |
| 20260508043142 | 14 | 30 | 3.2 | 8.0 | 0.00 | 0.00 | 0.00 | 15 | 1019.7 |
| 20260508042636 | 14 | 5 | 3.2 | 12.9 | 0.00 | 0.00 | 0.00 | 15 | 1019.8 |
| 20260508042149 | 14 | 44 | 3.2 | 9.7 | 0.00 | 0.00 | 0.00 | 15 | 1019.7 |
| 20260508041702 | 14 | 33 | 6.4 | 9.7 | 0.00 | 0.00 | 0.00 | 14 | 1019.7 |
| 20260508041134 | 14 | 296 | 1.6 | 8.0 | 0.00 | 0.00 | 0.00 | 15 | 1019.7 |
| 20260508040649 | 14 | 41 | 4.8 | 8.0 | 0.00 | 0.00 | 0.00 | 15 | 1019.7 |
| 20260508040140 | 14 | 323 | 3.2 | 12.9 | 0.00 | 0.00 | 0.00 | 15 | 1019.7 |
| 20260508035639 | 15 | 13 | 3.2 | 12.9 | 0.00 | 0.00 | 0.00 | 15 | 1019.7 |
| 20260508035153 | 15 | 351 | 6.4 | 11.3 | 0.00 | 0.00 | 0.00 | 15 | 1019.7 |
| 20260508034624 | 15 | 347 | 3.2 | 9.7 | 0.00 | 0.00 | 0.00 | 15 | 1019.7 |
| 20260508034137 | 15 | 300 | 1.6 | 6.4 | 0.00 | 0.00 | 0.00 | 15 | 1019.6 |
| 20260508033631 | 15 | 300 | 3.2 | 8.0 | 0.00 | 0.00 | 0.00 | 15 | 1019.6 |
| 20260508033144 | 15 | 5 | 3.2 | 8.0 | 0.00 | 0.00 | 0.00 | 15 | 1019.5 |
| 20260508032637 | 15 | 257 | 1.6 | 6.4 | 0.00 | 0.00 | 0.00 | 15 | 1019.4 |
| 20260508032129 | 15 | 45 | 3.2 | 6.4 | 0.00 | 0.00 | 0.00 | 14 | 1019.4 |
| 20260508031644 | 15 | 5 | 3.2 | 9.7 | 0.00 | 0.00 | 0.00 | 15 | 1019.2 |
| 20260508031136 | 15 | 5 | 4.8 | 9.7 | 0.00 | 0.00 | 0.00 | 15 | 1019.2 |
| 20260508030634 | 15 | 9 | 3.2 | 6.4 | 0.00 | 0.00 | 0.00 | 15 | 1019.2 |
| 20260508030126 | 15 | 62 | 3.2 | 20.9 | 0.00 | 0.00 | 0.00 | 15 | 1019.0 |
| 20260508025639 | 15 | 5 | 4.8 | 20.9 | 0.00 | 0.00 | 0.00 | 15 | 1018.9 |
| 20260508025133 | 15 | 13 | 3.2 | 12.9 | 0.00 | 0.00 | 0.00 | 15 | 1018.9 |
| 20260508024625 | 15 | 15 | 3.2 | 8.0 | 0.00 | 0.00 | 0.00 | 16 | 1018.7 |
| 20260508024159 | 15 | 50 | 3.2 | 8.0 | 0.00 | 0.00 | 0.00 | 16 | 1018.7 |
| 20260508023631 | 15 | 91 | 1.6 | 3.2 | 0.00 | 0.00 | 0.00 | 17 | 1018.7 |
| 20260508023125 | 15 | 360 | 1.6 | 4.8 | 0.00 | 0.00 | 0.00 | 17 | 1018.7 |
| 20260508022638 | 15 | 302 | 3.2 | 4.8 | 0.00 | 0.00 | 0.00 | 19 | 1018.7 |
| 20260508022136 | 15 | 246 | 0.0 | 4.8 | 0.00 | 0.00 | 0.00 | 18 | 1018.7 |
| 20260508021629 | 14 | 68 | 1.6 | 4.8 | 0.00 | 0.00 | 0.00 | 20 | 1018.7 |
| 20260508021123 | 14 | 336 | 0.0 | 4.8 | 0.00 | 0.00 | 0.00 | 19 | 1018.6 |
| 20260508020636 | 13 | 336 | 3.2 | 4.8 | 0.00 | 0.00 | 0.00 | 20 | 1018.6 |
| 20260508020130 | 14 | 347 | 0.0 | 1.6 | 0.00 | 0.00 | 0.00 | 23 | 1018.5 |
| 20260508015624 | 14 | 347 | 0.0 | 3.2 | 0.00 | 0.00 | 0.00 | 21 | 1018.4 |
| 20260508015140 | 14 | 5 | 0.0 | 3.2 | 0.00 | 0.00 | 0.00 | 22 | 1018.4 |
| 20260508014632 | 15 | 271 | 0.0 | 0.0 | 0.00 | 0.00 | 0.00 | 21 | 1018.3 |
| 20260508014130 | 15 | 271 | 0.0 | 1.6 | 0.00 | 0.00 | 0.00 | 21 | 1018.2 |
| 20260508013625 | 16 | 271 | 0.0 | 3.2 | 0.00 | 0.00 | 0.00 | 21 | 1018.2 |
| 20260508013138 | 16 | 271 | 1.6 | 4.8 | 0.00 | 0.00 | 0.00 | 18 | 1018.1 |
| 20260508012631 | 17 | 271 | 1.6 | 4.8 | 0.00 | 0.00 | 0.00 | 17 | 1018.0 |
| 20260508012125 | 17 | 311 | 1.6 | 3.2 | 0.00 | 0.00 | 0.00 | 17 | 1017.9 |
| 20260508011639 | 17 | 311 | 0.0 | 1.6 | 0.00 | 0.00 | 0.00 | 15 | 1017.8 |
| 20260508011134 | 18 | 311 | 0.0 | 1.6 | 0.00 | 0.00 | 0.00 | 15 | 1017.8 |
| 20260508010627 | 18 | 311 | 0.0 | 4.8 | 0.00 | 0.00 | 0.00 | 14 | 1017.8 |
| 20260508010125 | 18 | 311 | 3.2 | 4.8 | 0.00 | 0.00 | 0.00 | 14 | 1017.8 |
| 20260508005638 | 18 | 360 | 1.6 | 3.2 | 0.00 | 0.00 | 0.00 | 13 | 1017.8 |
| 20260508005132 | 18 | 360 | 1.6 | 3.2 | 0.00 | 0.00 | 0.00 | 12 | 1017.8 |
| 20260508004626 | 18 | 360 | 1.6 | 3.2 | 0.00 | 0.00 | 0.00 | 13 | 1017.7 |
| 20260508004200 | 18 | 112 | 0.0 | 8.0 | 0.00 | 0.00 | 0.00 | 13 | 1017.7 |
| 20260508003653 | 19 | 137 | 1.6 | 8.0 | 0.00 | 0.00 | 0.00 | 12 | 1017.8 |
| 20260508003146 | 19 | 176 | 0.0 | 6.4 | 0.00 | 0.00 | 0.00 | 13 | 1017.8 |
| 20260508002638 | 19 | 166 | 0.0 | 12.9 | 0.00 | 0.00 | 0.00 | 12 | 1018.0 |
| 20260508002133 | 19 | 132 | 3.2 | 9.7 | 0.00 | 0.00 | 0.00 | 12 | 1017.9 |
| 20260508001645 | 20 | 168 | 3.2 | 9.7 | 0.00 | 0.00 | 0.00 | 12 | 1017.9 |
| 20260508001141 | 20 | 148 | 3.2 | 9.7 | 0.00 | 0.00 | 0.00 | 12 | 1017.9 |
| 20260508000652 | 20 | 177 | 1.6 | 11.3 | 0.00 | 0.00 | 0.00 | 12 | 1017.9 |
| 20260508000123 | 20 | 104 | 4.8 | 11.3 | 0.00 | 0.00 | 0.00 | 12 | 1017.9 |
| 20260507235656 | 20 | 113 | 1.6 | 6.4 | 0.00 | 0.00 | 0.00 | 13 | 1018.0 |
| 20260507235128 | 20 | 327 | 1.6 | 8.0 | 0.00 | 0.00 | 0.00 | 13 | 1018.1 |
| 20260507234642 | 20 | 130 | 4.8 | 8.0 | 0.00 | 0.00 | 0.00 | 12 | 1018.0 |
| 20260507234157 | 20 | 161 | 1.6 | 6.4 | 0.00 | 0.00 | 0.00 | 13 | 1018.1 |
| 20260507233630 | 20 | 227 | 1.6 | 8.0 | 0.00 | 0.00 | 0.00 | 14 | 1018.1 |
| 20260507233124 | 20 | 153 | 3.2 | 8.0 | 0.00 | 0.00 | 0.00 | 14 | 1018.2 |
| 20260507232636 | 20 | 94 | 0.0 | 8.0 | 0.00 | 0.00 | 0.00 | 15 | 1018.1 |
| 20260507232148 | 20 | 91 | 1.6 | 8.0 | 0.00 | 0.00 | 0.00 | 15 | 1018.2 |
| 20260507231644 | 20 | 97 | 1.6 | 12.9 | 0.00 | 0.00 | 0.00 | 15 | 1018.2 |
| 20260507231137 | 19 | 128 | 6.4 | 12.9 | 0.00 | 0.00 | 0.00 | 16 | 1018.3 |
| 20260507230630 | 19 | 221 | 3.2 | 9.7 | 0.00 | 0.00 | 0.00 | 16 | 1018.3 |
| 20260507230123 | 19 | 287 | 1.6 | 11.3 | 0.00 | 0.00 | 0.00 | 16 | 1018.5 |
| 20260507225635 | 20 | 126 | 4.8 | 11.3 | 0.00 | 0.00 | 0.00 | 17 | 1018.4 |
| 20260507225129 | 20 | 36 | 1.6 | 9.7 | 0.00 | 0.00 | 0.00 | 17 | 1018.5 |
| 20260507224623 | 20 | 90 | 3.2 | 6.4 | 0.00 | 0.00 | 0.00 | 17 | 1018.5 |
| 20260507224134 | 20 | 267 | 1.6 | 9.7 | 0.00 | 0.00 | 0.00 | 18 | 1018.5 |
| 20260507223627 | 19 | 238 | 4.8 | 9.7 | 0.00 | 0.00 | 0.00 | 18 | 1018.5 |
| 20260507223125 | 19 | 84 | 3.2 | 8.0 | 0.00 | 0.00 | 0.00 | 18 | 1018.6 |
| 20260507222639 | 19 | 290 | 3.2 | 8.0 | 0.00 | 0.00 | 0.00 | 18 | 1018.6 |
| 20260507222131 | 19 | 307 | 4.8 | 8.0 | 0.00 | 0.00 | 0.00 | 19 | 1018.7 |
| 20260507221625 | 19 | 146 | 3.2 | 14.5 | 0.00 | 0.00 | 0.00 | 19 | 1018.7 |
| 20260507221138 | 20 | 269 | 6.4 | 14.5 | 0.00 | 0.00 | 0.00 | 19 | 1018.8 |
| 20260507220631 | 20 | 136 | 4.8 | 12.9 | 0.00 | 0.00 | 0.00 | 20 | 1018.8 |
| 20260507220124 | 20 | 178 | 4.8 | 11.3 | 0.00 | 0.00 | 0.00 | 19 | 1018.9 |
| 20260507215637 | 20 | 310 | 1.6 | 4.8 | 0.00 | 0.00 | 0.00 | 20 | 1018.9 |
| 20260507215134 | 20 | 252 | 3.2 | 8.0 | 0.00 | 0.00 | 0.00 | 20 | 1019.1 |
| 20260507214628 | 20 | 169 | 4.8 | 8.0 | 0.00 | 0.00 | 0.00 | 20 | 1019.1 |
| 20260507214200 | 20 | 136 | 1.6 | 9.7 | 0.00 | 0.00 | 0.00 | 21 | 1019.2 |
| 20260507213633 | 20 | 311 | 4.8 | 9.7 | 0.00 | 0.00 | 0.00 | 21 | 1019.3 |
| 20260507213126 | 20 | 165 | 4.8 | 8.0 | 0.00 | 0.00 | 0.00 | 21 | 1019.4 |
| 20260507212700 | 20 | 179 | 3.2 | 8.0 | 0.00 | 0.00 | 0.00 | 22 | 1019.5 |
| 20260507212131 | 20 | 309 | 4.8 | 8.0 | 0.00 | 0.00 | 0.00 | 22 | 1019.6 |
| 20260507211624 | 20 | 150 | 3.2 | 9.7 | 0.00 | 0.00 | 0.00 | 23 | 1019.7 |
| 20260507211138 | 20 | 351 | 1.6 | 14.5 | 0.00 | 0.00 | 0.00 | 22 | 1019.8 |
| 20260507210651 | 20 | 140 | 6.4 | 14.5 | 0.00 | 0.00 | 0.00 | 21 | 1019.9 |
| 20260507210147 | 19 | 312 | 4.8 | 12.9 | 0.00 | 0.00 | 0.00 | 21 | 1020.0 |
| 20260507205640 | 18 | 154 | 3.2 | 16.1 | 0.00 | 0.00 | 0.00 | 22 | 1020.0 |
| 20260507205133 | 18 | 193 | 6.4 | 16.1 | 0.00 | 0.00 | 0.00 | 21 | 1020.1 |
| 20260507204625 | 18 | 214 | 3.2 | 8.0 | 0.00 | 0.00 | 0.00 | 23 | 1020.1 |
| 20260507204139 | 18 | 76 | 4.8 | 8.0 | 0.00 | 0.00 | 0.00 | 22 | 1020.2 |
| 20260507203631 | 18 | 29 | 1.6 | 9.7 | 0.00 | 0.00 | 0.00 | 21 | 1020.3 |
| 20260507203144 | 18 | 171 | 3.2 | 14.5 | 0.00 | 0.00 | 0.00 | 21 | 1020.5 |
| 20260507202637 | 19 | 144 | 4.8 | 17.7 | 0.00 | 0.00 | 0.00 | 21 | 1020.5 |
| 20260507202151 | 19 | 229 | 6.4 | 17.7 | 0.00 | 0.00 | 0.00 | 21 | 1020.6 |
| 20260507201627 | 19 | 132 | 1.6 | 8.0 | 0.00 | 0.00 | 0.00 | 22 | 1020.6 |
| 20260507201140 | 19 | 343 | 3.2 | 9.7 | 0.00 | 0.00 | 0.00 | 22 | 1020.7 |
| 20260507200653 | 18 | 250 | 3.2 | 9.7 | 0.00 | 0.00 | 0.00 | 22 | 1020.8 |
| 20260507200146 | 18 | 313 | 3.2 | 8.0 | 0.00 | 0.00 | 0.00 | 23 | 1020.8 |
| 20260507195638 | 17 | 86 | 4.8 | 9.7 | 0.00 | 0.00 | 0.00 | 23 | 1020.8 |
| 20260507195132 | 17 | 162 | 6.4 | 9.7 | 0.00 | 0.00 | 0.00 | 24 | 1020.9 |
| 20260507194625 | 17 | 199 | 3.2 | 9.7 | 0.00 | 0.00 | 0.00 | 23 | 1021.0 |
| 20260507194138 | 17 | 31 | 4.8 | 9.7 | 0.00 | 0.00 | 0.00 | 23 | 1021.0 |
| 20260507193630 | 17 | 198 | 1.6 | 11.3 | 0.00 | 0.00 | 0.00 | 24 | 1021.1 |
| 20260507193127 | 17 | 178 | 4.8 | 19.3 | 0.00 | 0.00 | 0.00 | 24 | 1021.3 |
| 20260507192641 | 17 | 133 | 4.8 | 11.3 | 0.00 | 0.00 | 0.00 | 23 | 1021.3 |
| 20260507192135 | 17 | 121 | 3.2 | 8.0 | 0.00 | 0.00 | 0.00 | 25 | 1021.3 |
| 20260507191627 | 17 | 40 | 4.8 | 8.0 | 0.00 | 0.00 | 0.00 | 25 | 1021.4 |
| 20260507191141 | 17 | 78 | 4.8 | 11.3 | 0.00 | 0.00 | 0.00 | 25 | 1021.4 |
| 20260507190633 | 16 | 164 | 4.8 | 14.5 | 0.00 | 0.00 | 0.00 | 25 | 1021.5 |
| 20260507190127 | 16 | 145 | 6.4 | 14.5 | 0.00 | 0.00 | 0.00 | 25 | 1021.5 |
| 20260507185640 | 16 | 87 | 1.6 | 6.4 | 0.00 | 0.00 | 0.00 | 27 | 1021.5 |
| 20260507185133 | 15 | 201 | 4.8 | 6.4 | 0.00 | 0.00 | 0.00 | 27 | 1021.7 |
| 20260507184631 | 15 | 101 | 4.8 | 9.7 | 0.00 | 0.00 | 0.00 | 27 | 1021.8 |
| 20260507184123 | 15 | 29 | 4.8 | 12.9 | 0.00 | 0.00 | 0.00 | 28 | 1021.9 |
| 20260507183636 | 15 | 58 | 1.6 | 6.4 | 0.00 | 0.00 | 0.00 | 28 | 1022.0 |
| 20260507183150 | 15 | 257 | 3.2 | 11.3 | 0.00 | 0.00 | 0.00 | 26 | 1022.0 |
| 20260507182623 | 15 | 62 | 4.8 | 11.3 | 0.00 | 0.00 | 0.00 | 27 | 1022.0 |
| 20260507182135 | 15 | 219 | 6.4 | 12.9 | 0.00 | 0.00 | 0.00 | 28 | 1022.1 |
| 20260507181650 | 15 | 150 | 4.8 | 12.9 | 0.00 | 0.00 | 0.00 | 28 | 1022.2 |
| 20260507181142 | 15 | 244 | 4.8 | 12.9 | 0.00 | 0.00 | 0.00 | 27 | 1022.3 |
| 20260507180635 | 15 | 62 | 4.8 | 11.3 | 0.00 | 0.00 | 0.00 | 28 | 1022.4 |
| 20260507180152 | 14 | 111 | 1.6 | 12.9 | 0.00 | 0.00 | 0.00 | 29 | 1022.4 |
| 20260507175626 | 13 | 173 | 3.2 | 14.5 | 0.00 | 0.00 | 0.00 | 29 | 1022.5 |
| 20260507175139 | 13 | 134 | 3.2 | 14.5 | 0.00 | 0.00 | 0.00 | 29 | 1022.6 |
| 20260507174633 | 13 | 257 | 4.8 | 9.7 | 0.00 | 0.00 | 0.00 | 28 | 1022.7 |
| 20260507174126 | 13 | 98 | 3.2 | 14.5 | 0.00 | 0.00 | 0.00 | 29 | 1022.7 |
| 20260507173639 | 13 | 126 | 4.8 | 14.5 | 0.00 | 0.00 | 0.00 | 29 | 1022.8 |
| 20260507173134 | 13 | 56 | 4.8 | 12.9 | 0.00 | 0.00 | 0.00 | 30 | 1022.8 |
| 20260507172626 | 13 | 127 | 3.2 | 12.9 | 0.00 | 0.00 | 0.00 | 30 | 1022.9 |
| 20260507172159 | 13 | 121 | 4.8 | 11.3 | 0.00 | 0.00 | 0.00 | 30 | 1023.0 |
| 20260507171636 | 13 | 167 | 4.8 | 9.7 | 0.00 | 0.00 | 0.00 | 31 | 1023.1 |
| 20260507171129 | 13 | 127 | 3.2 | 12.9 | 0.00 | 0.00 | 0.00 | 31 | 1023.1 |
| 20260507170623 | 12 | 153 | 3.2 | 14.5 | 0.00 | 0.00 | 0.00 | 32 | 1023.2 |
| 20260507170135 | 13 | 144 | 9.7 | 14.5 | 0.00 | 0.00 | 0.00 | 31 | 1023.2 |
| 20260507165629 | 12 | 44 | 4.8 | 14.5 | 0.00 | 0.00 | 0.00 | 32 | 1023.2 |
| 20260507165123 | 12 | 142 | 3.2 | 12.9 | 0.00 | 0.00 | 0.00 | 34 | 1023.2 |
| 20260507164636 | 11 | 184 | 4.8 | 9.7 | 0.00 | 0.00 | 0.00 | 34 | 1023.4 |
| 20260507164130 | 11 | 119 | 4.8 | 11.3 | 0.00 | 0.00 | 0.00 | 34 | 1023.4 |
| 20260507163626 | 11 | 153 | 6.4 | 12.9 | 0.00 | 0.00 | 0.00 | 34 | 1023.4 |
| 20260507163201 | 11 | 70 | 3.2 | 16.1 | 0.00 | 0.00 | 0.00 | 35 | 1023.4 |
| 20260507162633 | 11 | 121 | 3.2 | 11.3 | 0.00 | 0.00 | 0.00 | 36 | 1023.5 |
| 20260507162126 | 10 | 140 | 4.8 | 14.5 | 0.00 | 0.00 | 0.00 | 37 | 1023.6 |
| 20260507161641 | 11 | 26 | 4.8 | 14.5 | 0.00 | 0.00 | 0.00 | 36 | 1023.7 |
| 20260507161134 | 11 | 151 | 4.8 | 14.5 | 0.00 | 0.00 | 0.00 | 36 | 1023.8 |
| 20260507160626 | 10 | 150 | 4.8 | 14.5 | 0.00 | 0.00 | 0.00 | 38 | 1023.8 |
| 20260507160140 | 10 | 103 | 3.2 | 12.9 | 0.00 | 0.00 | 0.00 | 38 | 1023.8 |
| 20260507155634 | 10 | 101 | 4.8 | 9.7 | 0.00 | 0.00 | 0.00 | 37 | 1023.8 |
| 20260507155130 | 10 | 147 | 4.8 | 16.1 | 0.00 | 0.00 | 0.00 | 38 | 1023.8 |
| 20260507154623 | 10 | 140 | 4.8 | 14.5 | 0.00 | 0.00 | 0.00 | 38 | 1023.9 |
| 20260507154137 | 10 | 44 | 4.8 | 14.5 | 0.00 | 0.00 | 0.00 | 40 | 1023.9 |
| 20260507153630 | 9 | 166 | 4.8 | 17.7 | 0.00 | 0.00 | 0.00 | 40 | 1023.9 |
| 20260507153144 | 9 | 134 | 6.4 | 17.7 | 0.00 | 0.00 | 0.00 | 39 | 1023.9 |
| 20260507152637 | 10 | 48 | 3.2 | 17.7 | 0.00 | 0.00 | 0.00 | 38 | 1024.0 |
| 20260507152149 | 10 | 209 | 6.4 | 14.5 | 0.00 | 0.00 | 0.00 | 38 | 1023.9 |
| 20260507151623 | 10 | 85 | 4.8 | 9.7 | 0.00 | 0.00 | 0.00 | 38 | 1023.9 |
| 20260507151157 | 9 | 144 | 3.2 | 9.7 | 0.00 | 0.00 | 0.00 | 40 | 1023.9 |
| 20260507150628 | 9 | 348 | 3.2 | 14.5 | 0.00 | 0.00 | 0.00 | 40 | 1024.0 |
| 20260507150125 | 8 | 140 | 6.4 | 14.5 | 0.00 | 0.00 | 0.00 | 41 | 1024.0 |
| 20260507145700 | 9 | 121 | 8.0 | 14.5 | 0.00 | 0.00 | 0.00 | 42 | 1024.0 |
| 20260507145132 | 8 | 81 | 3.2 | 14.5 | 0.00 | 0.00 | 0.00 | 41 | 1024.1 |
| 20260507144625 | 8 | 150 | 1.6 | 11.3 | 0.00 | 0.00 | 0.00 | 45 | 1024.1 |
| 20260507144138 | 8 | 148 | 4.8 | 11.3 | 0.00 | 0.00 | 0.00 | 45 | 1024.1 |
| 20260507143632 | 8 | 51 | 3.2 | 6.4 | 0.00 | 0.00 | 0.00 | 45 | 1024.1 |
| 20260507143124 | 8 | 92 | 3.2 | 6.4 | 0.00 | 0.00 | 0.00 | 49 | 1024.1 |
| 20260507142658 | 7 | 99 | 3.2 | 11.3 | 0.00 | 0.00 | 0.00 | 50 | 1024.0 |
| 20260507142131 | 7 | 148 | 3.2 | 11.3 | 0.00 | 0.00 | 0.00 | 53 | 1024.1 |
| 20260507141627 | 6 | 146 | 1.6 | 8.0 | 0.00 | 0.00 | 0.00 | 54 | 1024.3 |
| 20260507141140 | 6 | 155 | 3.2 | 8.0 | 0.00 | 0.00 | 0.00 | 55 | 1024.3 |
| 20260507140634 | 5 | 138 | 4.8 | 8.0 | 0.00 | 0.00 | 0.00 | 57 | 1024.3 |
| 20260507140148 | 5 | 145 | 3.2 | 8.0 | 0.00 | 0.00 | 0.00 | 58 | 1024.3 |